Location: Newark
(48.9886°N, 1.2358°E)
Time: 05:36:32
(UTC+00:00)

Explorer 7 - All Passes

Search period start: 22 November 2019 00:00
Search period end: 02 December 2019 00:00
Orbit: 485 x 680 km, 50.3° (Epoch: 21 November)

Date Brightness Start Highest point End Pass type
(mag) Time Alt. Az. Time Alt. Az. Time Alt. Az.
22 Nov - 01:00:12 10° W 01:04:48 80° N 01:09:07 10° ENE night (unlit)
22 Nov - 02:41:05 10° WNW 02:45:32 83° N 02:49:41 10° E visible
22 Nov - 04:21:54 10° W 04:25:54 40° SSW 04:29:40 10° SE visible
22 Nov - 21:45:36 10° S 21:49:06 20° SE 21:52:30 10° E night (unlit)
22 Nov - 23:24:31 10° WSW 23:29:11 64° SSE 23:33:36 10° ENE night (unlit)
23 Nov - 01:05:13 10° W 01:09:49 75° N 01:14:07 10° E night (unlit)
23 Nov - 02:46:05 10° WNW 02:50:31 84° SSW 02:54:39 10° ESE night (unlit)
23 Nov - 04:27:02 10° W 04:30:41 28° SW 04:34:10 10° SSE visible
23 Nov - 21:49:44 10° SSW 21:53:52 29° SE 21:57:50 10° E night (unlit)
23 Nov - 23:29:24 10° WSW 23:34:07 80° SSE 23:38:35 10° ENE night (unlit)
24 Nov - 01:10:15 10° W 01:14:50 74° N 01:19:08 10° E night (unlit)
24 Nov - 02:51:04 10° WNW 02:55:28 68° SSW 02:59:34 10° ESE night (unlit)
24 Nov - 04:32:21 10° W 04:35:25 20° SW 04:38:22 10° S visible
24 Nov - 20:18:00 10° SE 20:18:55 10° SE 20:19:51 10° ESE night (unlit)
24 Nov - 21:54:11 10° SW 21:58:39 40° SSE 22:02:58 10° E night (unlit)
24 Nov - 23:34:22 10° WSW 23:39:05 87° NNW 23:43:33 10° ENE night (unlit)
25 Nov - 01:15:16 10° W 01:19:51 78° N 01:24:08 10° E night (unlit)
25 Nov - 02:56:04 10° WNW 03:00:21 51° SSW 03:04:22 10° SE night (unlit)
25 Nov - 04:38:06 10° WSW 04:40:05 13° SW 04:42:00 10° SSW visible
25 Nov - 20:20:36 10° S 20:23:34 16° SE 20:26:29 10° E night (unlit)
25 Nov - 21:58:50 10° SW 22:03:31 54° SSE 22:08:00 10° ENE night (unlit)
25 Nov - 23:39:22 10° W 23:44:05 78° N 23:48:33 10° E night (unlit)
26 Nov - 01:20:16 10° WNW 01:24:51 86° N 01:29:08 10° ESE night (unlit)
26 Nov - 03:01:08 10° W 03:05:11 37° SSW 03:09:00 10° SE night (unlit)
26 Nov - 20:24:26 10° SSW 20:28:16 24° SE 20:32:00 10° E night (unlit)
26 Nov - 22:03:38 10° WSW 22:08:25 70° SSE 22:12:59 10° ENE night (unlit)
26 Nov - 23:44:24 10° W 23:49:06 74° N 23:53:33 10° E night (unlit)
27 Nov - 01:25:15 10° WNW 01:29:49 80° SSW 01:34:05 10° ESE night (unlit)
27 Nov - 03:06:17 10° W 03:09:57 26° SW 03:13:26 10° SSE night (unlit)
27 Nov - 20:28:41 10° SSW 20:33:02 33° SE 20:37:14 10° E night (unlit)
27 Nov - 22:08:32 10° WSW 22:13:22 85° SSE 22:17:58 10° ENE night (unlit)
27 Nov - 23:49:25 10° W 23:54:08 75° N 23:58:33 10° E night (unlit)
28 Nov - 01:30:14 10° WNW 01:34:45 63° SSW 01:38:58 10° ESE night (unlit)
28 Nov - 03:11:40 10° W 03:14:39 18° SW 03:17:31 10° S night (unlit)
28 Nov - 18:56:00 10° SSE 18:58:03 13° SE 19:00:04 10° ESE visible
28 Nov - 20:33:12 10° SW 20:37:51 45° SSE 20:42:20 10° ENE night (unlit)
28 Nov - 22:13:31 10° W 22:18:21 84° N 22:22:56 10° ENE night (unlit)
28 Nov - 23:54:26 10° W 23:59:08 80° N 00:03:34 10° E night (unlit)
29 Nov - 01:35:15 10° WNW 01:39:37 47° SSW 01:43:43 10° SE night (unlit)
29 Nov - 03:17:38 10° WSW 03:19:17 12° SW 03:20:53 10° SSW night (unlit)
29 Nov - 18:59:19 10° S 19:02:42 19° SE 19:06:02 10° E visible
29 Nov - 20:37:55 10° SW 20:42:43 59° SSE 20:47:21 10° ENE night (unlit)
29 Nov - 22:18:32 10° W 22:23:21 77° N 22:27:56 10° E night (unlit)
29 Nov - 23:59:25 10° WNW 00:04:08 90° SSW 00:08:33 10° ESE night (unlit)
30 Nov - 01:40:19 10° W 01:44:26 34° SW 01:48:18 10° SSE night (unlit)
30 Nov - 19:03:20 10° SSW 19:07:24 27° SE 19:11:25 10° E visible
30 Nov - 20:42:45 10° WSW 20:47:38 75° SSE 20:52:20 10° ENE visible
30 Nov - 22:23:33 10° W 22:28:22 75° N 22:32:56 10° E night (unlit)
01 Dec - 00:04:24 10° WNW 00:09:05 75° SSW 00:13:28 10° ESE night (unlit)
01 Dec - 01:45:31 10° W 01:49:11 24° SW 01:52:39 10° SSE night (unlit)
01 Dec - 19:07:41 10° SSW 19:12:11 37° SE 19:16:35 10° E visible
01 Dec - 20:47:41 10° WSW 20:52:35 89° SSE 20:57:18 10° ENE visible
01 Dec - 22:28:34 10° W 22:33:23 77° N 22:37:56 10° E night (unlit)
